When you browse on this site, cookies collect data to enhance your experience and personalize the content and advertising you see.
Visit our Privacy Policy to learn more. By continuing to use the site, you agree to this use of cookies and data.
  • In Hungary
  • List of Countries
  • For 7 days
  • Water Temperature
  • Satellite Maps
  • Weather Map
  • News
  • Weather Widgets
  • user-avatar
    Login

    Hourly Weather Borzhomi

    Today, 16 January, Wednesday

    Time Temperature Precipitation Wind Pressure Humidity
    00:00 0°C° 0 mm 3 mps 659 mmHg 70%
    01:00 0°C° 0 mm 3 mps 659 mmHg 71%
    02:00 0°C° 0 mm 3 mps 659 mmHg 72%
    03:00 0°C° 0 mm 3 mps 658 mmHg 73%
    04:00 0°C° 0 mm 3 mps 658 mmHg 74%
    05:00 0°C° 0 mm 3 mps 658 mmHg 74%
    06:00 0°C° 0 mm 3 mps 658 mmHg 74%
    07:00 0°C° 0 mm 3 mps 658 mmHg 73%
    08:00 0°C° 0 mm 3 mps 658 mmHg 72%
    09:00 +1°C° 0 mm 3 mps 658 mmHg 70%
    10:00 +2°C° 0 mm 3 mps 658 mmHg 69%
    11:00 +3°C° 0 mm 3 mps 658 mmHg 67%
    12:00 +5°C° 0 mm 2 mps 658 mmHg 66%
    13:00 +5°C° 0 mm 2 mps 658 mmHg 65%
    14:00 +6°C° 0 mm 2 mps 658 mmHg 65%
    15:00 +6°C° 0 mm 2 mps 658 mmHg 65%
    16:00 +4°C° 0 mm 2 mps 658 mmHg 68%
    17:00 +2°C° 0 mm 2 mps 658 mmHg 72%
    18:00 +1°C° 0 mm 2 mps 658 mmHg 75%
    19:00 +2°C° 0.2 mm 1 mps 658 mmHg 77%
    20:00 +1°C° 0.2 mm 1 mps 658 mmHg 79%
    21:00 +1°C° 0.2 mm 1 mps 658 mmHg 81%
    22:00 +1°C° 0.4 mm 1 mps 658 mmHg 84%
    23:00 +1°C° 0.4 mm 1 mps 658 mmHg 87%

    Tomorrow, 17 January, Thursday

    Time Temperature Precipitation Wind Pressure Humidity
    00:00 +1°C° 0.4 mm 1 mps 658 mmHg 90%
    01:00 0°C° 0.8 mm 1 mps 658 mmHg 92%
    02:00 0°C° 0.8 mm 1 mps 658 mmHg 94%
    03:00 -2°C° 0.8 mm 2 mps 658 mmHg 96%
    04:00 -3°C° 0.7 mm 2 mps 658 mmHg 96%
    05:00 -3°C° 0.7 mm 2 mps 658 mmHg 96%
    06:00 -4°C° 0.7 mm 2 mps 659 mmHg 96%
    07:00 -4°C° 0.2 mm 2 mps 659 mmHg 95%
    08:00 -4°C° 0.2 mm 2 mps 659 mmHg 94%
    09:00 -5°C° 0.2 mm 2 mps 660 mmHg 93%
    10:00 -4°C° 0.2 mm 2 mps 660 mmHg 91%
    11:00 -5°C° 0.2 mm 3 mps 660 mmHg 89%
    12:00 -5°C° 0.2 mm 3 mps 660 mmHg 87%
    13:00 -5°C° 0.1 mm 3 mps 660 mmHg 86%
    14:00 -5°C° 0.1 mm 3 mps 660 mmHg 86%
    15:00 -5°C° 0.1 mm 3 mps 661 mmHg 85%
    16:00 -5°C° 0 mm 2 mps 661 mmHg 88%
    17:00 -5°C° 0 mm 2 mps 662 mmHg 91%
    18:00 -6°C° 0 mm 2 mps 663 mmHg 94%
    19:00 -6°C° 0 mm 2 mps 663 mmHg 94%
    20:00 -4°C° 0 mm 1 mps 664 mmHg 94%
    21:00 -4°C° 0 mm 1 mps 664 mmHg 94%
    22:00 -4°C° 0 mm 1 mps 665 mmHg 94%
    23:00 -4°C° 0 mm 1 mps 665 mmHg 95%

    Day after tomorrow, 18 January, Friday

    Time Temperature Precipitation Wind Pressure Humidity
    00:00 -4°C° 0 mm 1 mps 665 mmHg 95%
    01:00 -4°C° 0 mm 1 mps 665 mmHg 94%
    02:00 -4°C° 0 mm 1 mps 666 mmHg 94%
    03:00 -4°C° 0 mm 1 mps 666 mmHg 94%
    04:00 -6°C° 0 mm 1 mps 666 mmHg 94%
    05:00 -6°C° 0 mm 1 mps 666 mmHg 93%
    06:00 -6°C° 0 mm 1 mps 666 mmHg 93%
    07:00 -4°C° 0 mm 1 mps 667 mmHg 91%
    08:00 -4°C° 0 mm 1 mps 667 mmHg 88%
    09:00 -3°C° 0 mm 1 mps 668 mmHg 86%
    10:00 -2°C° 0 mm 1 mps 667 mmHg 83%
    11:00 -1°C° 0 mm 1 mps 667 mmHg 81%
    12:00 0°C° 0 mm 1 mps 667 mmHg 78%
    13:00 +1°C° 0 mm 1 mps 667 mmHg 78%
    14:00 +1°C° 0 mm 1 mps 667 mmHg 78%
    15:00 +1°C° 0 mm 1 mps 666 mmHg 79%
    16:00 -1°C° 0 mm 1 mps 666 mmHg 82%
    17:00 -2°C° 0 mm 1 mps 666 mmHg 86%
    18:00 -4°C° 0 mm 1 mps 666 mmHg 90%
    19:00 -4°C° 0 mm 1 mps 667 mmHg 87%
    20:00 -4°C° 0 mm 1 mps 667 mmHg 84%
    21:00 -6°C° 0 mm 1 mps 667 mmHg 82%
    22:00 -7°C° 0 mm 2 mps 667 mmHg 79%
    23:00 -7°C° 0 mm 2 mps 667 mmHg 77%

    19 January, Saturday

    Time Temperature Precipitation Wind Pressure Humidity
    00:00 -7°C° 0 mm 2 mps 667 mmHg 75%
    01:00 -7°C° 0 mm 2 mps 667 mmHg 73%
    02:00 -7°C° 0 mm 2 mps 667 mmHg 71%
    03:00 -8°C° 0 mm 2 mps 667 mmHg 70%
    04:00 -8°C° 0 mm 2 mps 666 mmHg 68%
    05:00 -8°C° 0 mm 2 mps 666 mmHg 66%
    06:00 -8°C° 0 mm 2 mps 666 mmHg 65%
    07:00 -7°C° 0 mm 2 mps 666 mmHg 63%
    08:00 -6°C° 0 mm 2 mps 667 mmHg 61%
    09:00 -5°C° 0 mm 2 mps 667 mmHg 59%
    10:00 -3°C° 0 mm 2 mps 667 mmHg 57%
    11:00 +1°C° 0 mm 1 mps 667 mmHg 54%
    12:00 +3°C° 0 mm 1 mps 667 mmHg 52%
    13:00 +3°C° 0 mm 1 mps 667 mmHg 54%
    14:00 +3°C° 0 mm 1 mps 667 mmHg 56%
    15:00 +2°C° 0 mm 1 mps 667 mmHg 57%
    16:00 +1°C° 0 mm 1 mps 667 mmHg 62%
    17:00 -1°C° 0 mm 1 mps 667 mmHg 67%
    18:00 -3°C° 0 mm 1 mps 666 mmHg 72%
    19:00 -3°C° 0 mm 1 mps 667 mmHg 71%
    20:00 -3°C° 0 mm 1 mps 667 mmHg 71%
    21:00 -3°C° 0 mm 1 mps 667 mmHg 70%
    22:00 -3°C° 0 mm 1 mps 667 mmHg 69%
    23:00 -3°C° 0 mm 1 mps 667 mmHg 68%

    20 January, Sunday

    Time Temperature Precipitation Wind Pressure Humidity
    00:00 -2°C° 0 mm 1 mps 668 mmHg 67%
    01:00 -2°C° 0 mm 1 mps 668 mmHg 66%
    02:00 -3°C° 0 mm 1 mps 668 mmHg 65%
    03:00 -3°C° 0 mm 1 mps 668 mmHg 64%
    04:00 -3°C° 0 mm 1 mps 667 mmHg 64%
    05:00 -3°C° 0 mm 1 mps 667 mmHg 63%
    06:00 -3°C° 0 mm 1 mps 667 mmHg 63%
    07:00 -2°C° 0 mm 1 mps 668 mmHg 63%
    08:00 -2°C° 0 mm 1 mps 668 mmHg 62%
    09:00 -1°C° 0 mm 1 mps 668 mmHg 62%
    10:00 0°C° 0 mm 1 mps 668 mmHg 60%
    11:00 +2°C° 0 mm 1 mps 668 mmHg 58%
    12:00 +2°C° 0 mm 0 mps 668 mmHg 55%
    13:00 +2°C° 0 mm 0 mps 668 mmHg 57%
    14:00 +2°C° 0 mm 0 mps 668 mmHg 59%
    15:00 +3°C° 0 mm 1 mps 667 mmHg 60%
    16:00 +2°C° 0 mm 1 mps 667 mmHg 65%
    17:00 0°C° 0 mm 1 mps 667 mmHg 69%
    18:00 -2°C° 0 mm 1 mps 667 mmHg 74%
    19:00 -2°C° 0 mm 1 mps 667 mmHg 73%
    20:00 -5°C° 0 mm 2 mps 667 mmHg 72%
    21:00 -5°C° 0 mm 2 mps 667 mmHg 70%
    22:00 -5°C° 0 mm 2 mps 667 mmHg 68%
    23:00 -6°C° 0 mm 2 mps 667 mmHg 66%

    21 January, Monday

    Time Temperature Precipitation Wind Pressure Humidity
    00:00 -6°C° 0 mm 2 mps 667 mmHg 64%
    01:00 -6°C° 0 mm 2 mps 667 mmHg 63%
    02:00 -6°C° 0 mm 2 mps 667 mmHg 62%
    03:00 -6°C° 0 mm 2 mps 667 mmHg 61%
    04:00 -7°C° 0 mm 2 mps 667 mmHg 60%
    05:00 -7°C° 0 mm 2 mps 667 mmHg 60%
    06:00 -7°C° 0 mm 2 mps 666 mmHg 59%
    07:00 -6°C° 0 mm 2 mps 667 mmHg 58%
    08:00 -5°C° 0 mm 2 mps 667 mmHg 58%
    09:00 -4°C° 0 mm 2 mps 667 mmHg 57%
    10:00 -1°C° 0 mm 1 mps 667 mmHg 55%
    11:00 +1°C° 0 mm 1 mps 667 mmHg 53%
    12:00 +3°C° 0 mm 1 mps 667 mmHg 51%
    13:00 +3°C° 0 mm 1 mps 666 mmHg 52%
    14:00 +3°C° 0 mm 1 mps 666 mmHg 54%
    15:00 +3°C° 0 mm 1 mps 666 mmHg 55%
    16:00 +2°C° 0 mm 1 mps 666 mmHg 60%
    17:00 0°C° 0 mm 1 mps 666 mmHg 65%
    18:00 -2°C° 0 mm 1 mps 666 mmHg 70%
    19:00 -2°C° 0 mm 1 mps 666 mmHg 71%
    20:00 -2°C° 0 mm 1 mps 666 mmHg 72%
    21:00 -5°C° 0 mm 2 mps 666 mmHg 73%
    22:00 -5°C° 0 mm 2 mps 665 mmHg 73%
    23:00 -5°C° 0 mm 2 mps 665 mmHg 73%
    Show more